User: anonymous   Login
Location: Killam
(52.7910°N, 111.8608°W)
Time: 09:50:04
(UTC+00:00)
Language:

SO-50 - Orbit

View from above orbital plane
View from above orbital plane
View from above satellite
View from above satellite

Ground track
Ground track

The orbit is defined by the following mean orbital elements,

1 27607U          26075.90132515 +.00000000 +00000-0 +20166-3 0 00009
2 27607  64.5530  54.4672 0075337 279.3752  79.8842 14.82814680    05
Epoch (UTC): 16 March 2026 21:37:54
Eccentricity: 0.0075337
inclination: 64.5530°
perigee height: 568 km
apogee height: 673 km
right ascension of ascending node: 54.4672°
argument of perigee: 279.3752°
revolutions per day: 14.82814680
mean anomaly at epoch: 79.8842°

The dashed part of the orbit path shows where the satellite is in the earth's shadow,  

DLR